Weather in Providence

United States     41°49′24″N   71°24′50″W
temp.,
°C
wind,
m/s
gust,
m/s
humid.,
%
clouds,
%
prec.,
mm/h
press.,
hPa
HPBL,
m
17 may, mon
mon1723:00+12wsw117388 0.0 102427
02:00+11wsw23805 0.0 102371
05:00+10w38815 0.0 1024191
08:00+15wnw24610 0.0 1025335
11:00+21wnw23401 0.0 10251566
14:00+22sw2235100 0.1 10232297
17:00+21wsw564338 0.1 10241461
20:00+16sw49625 0.1 1024397
18 may, tue
tue1823:00+12wsw210811 0.4 1025230
02:00+12wsw3126183 0.4 1025268
05:00+12w3967100 0.0 1024187
08:00+16w41063100 0.0 1025347
11:00+21w47425 0.0 10241707
14:00+24w4636100 0.0 10222779
17:00+22w5745100 0.0 10221711
20:00+17wsw3967100 0.0 1023253
19 may, wed
wed1923:00+15w378447 0.1 1023159
02:00+14nw288794 0.4 1023160
05:00+13nw238348 0.0 102457
08:00+18nw36645 0.0 1024252
11:00+24n46325 0.0 10241821
14:00+27n362927 0.0 10242558
17:00+25nnw1439100 0.0 10241879
20:00+18sse246951 0.0 1025137
20 may, thu
thu2023:00+15se24805 0.0 1026121
02:00+14ese13810 0.0 1027101
05:00+13ene11635 0.0 102814
08:00+17ene22485 0.0 1030294
11:00+23ese22385 0.0 1030958
14:00+25se33364 0.0 10291616
17:00+21sse444451 0.0 1029575
20:00+14s3563100 0.0 1030251
21 may, fri
fri2123:00+13s2468100 0.0 1031212
02:00+12s2474100 0.0 1030154
05:00+11sw137699 0.0 103096
08:00+15sw2359100 0.0 1030315
11:00+20ssw2351100 0.0 1029758
14:00+23ssw3348100 0.0 10271207
17:00+21ssw3356100 0.0 1026713
20:00+16ssw3573100 0.0 1025217